Mullan Pass, ID

10:13 AM PDT on October 20, 2019 (GMT -0700)
Mullan Pass

Weather History for KMLP - August, 2019

Change the Weather History Date:

Sunday, August 25, 2019

  Actual Average (K3TH) Record (K3TH)
Temperature  
Mean Temperature 52 °F -  
Max Temperature 57 °F 82 °F 99 °F (1996)
Min Temperature 46 °F 52 °F 39 °F (1996)
Degree Days  
Heating Degree Days 14    
Growing Degree Days 2 (Base 50)    
Moisture  
Dew Point 37 °F    
Average Humidity 58    
Maximum Humidity 74    
Minimum Humidity 47    
Precipitation  
Precipitation 0.00 in - - ()
Sea Level Pressure  
Sea Level Pressure 29.92 in    
Wind  
Wind Speed 6 mph (SW)    
Max Wind Speed 12 mph    
Max Gust Speed 23 mph    
Visibility 10 miles    
Events      
Averages and records for this station are not official NWS values.
T = Trace of Precipitation, MM = Missing Value Source: NWS Daily Summary

Daily Weather History Graph

Daily Weather History Graph

Search for Another Location

Airport or City:

Astronomy

Aug. 25, 2019 Rise Set
Actual Time 5:52 AM PDT 7:36 PM PDT
Civil Twilight 5:19 AM PDT 8:09 PM PDT
Nautical Twilight 4:39 AM PDT 8:48 PM PDT
Astronomical Twilight 3:55 AM PDT 9:32 PM PDT
Moon 12:17 AM PDT (8/25) 4:17 PM PDT (8/25)
Length of Visible Light 14h 49m
Length of Day
13h 44m
Waning Crescent, 28% of the Moon is Illuminated
Aug 25
Waning Crescent
Aug 30
New
Sep 5
First Quarter
Sep 13
Full
Sep 21
Last Quarter

Hourly Weather History & Observations

Time (PDT) Temp. Dew Point Humidity Pressure Visibility Wind Dir Wind Speed Gust Speed Precip Events Conditions
12:53 AM 51.1 °F 34.0 °F 52% 29.78 in 10.0 mi Variable 5.8 mph - N/A   Clear
1:53 AM 50.0 °F 35.1 °F 57% 29.76 in 10.0 mi SSW 5.8 mph - N/A   Clear
2:53 AM 50.0 °F 36.0 °F 59% 29.78 in 10.0 mi SSW 6.9 mph - N/A   Clear
3:53 AM 50.0 °F 37.0 °F 61% 29.78 in 10.0 mi Variable 5.8 mph - N/A   Overcast
4:53 AM 50.0 °F 37.9 °F 63% 29.76 in 10.0 mi SSW 10.4 mph 18.4 mph N/A   Overcast
5:53 AM 48.9 °F 37.9 °F 66% 29.77 in 10.0 mi SW 8.1 mph 18.4 mph N/A   Overcast
6:53 AM 46.9 °F 37.9 °F 71% 29.80 in 10.0 mi SW 11.5 mph 18.4 mph N/A   Overcast
7:53 AM 46.9 °F 37.9 °F 71% 29.82 in 10.0 mi Variable 4.6 mph - N/A   Mostly Cloudy
8:53 AM 46.9 °F 39.0 °F 74% 29.84 in 10.0 mi SW 9.2 mph 20.7 mph N/A   Mostly Cloudy
9:53 AM 48.9 °F 39.9 °F 71% 29.85 in 10.0 mi SSW 8.1 mph - N/A   Overcast
10:25 AM 50.0 °F 39.9 °F 68% 30.08 in 10.0 mi Variable 6.9 mph 23.0 mph N/A   Mostly Cloudy
10:53 AM 52.0 °F 39.0 °F 61% 29.86 in 10.0 mi WSW 10.4 mph 18.4 mph N/A   Mostly Cloudy
11:37 AM 52.0 °F 39.0 °F 61% 30.10 in 10.0 mi SW 9.2 mph - N/A   Overcast
11:53 AM 54.0 °F 39.0 °F 57% 29.87 in 10.0 mi Variable 4.6 mph - N/A   Overcast
12:21 PM 55.0 °F 39.0 °F 55% 30.11 in 10.0 mi Variable 5.8 mph - N/A   Mostly Cloudy
12:34 PM 53.1 °F 39.0 °F 59% 30.11 in 10.0 mi SW 8.1 mph - N/A   Overcast
12:53 PM 53.1 °F 39.0 °F 59% 29.90 in 10.0 mi WSW 9.2 mph 18.4 mph N/A   Overcast
1:20 PM 51.1 °F 37.9 °F 61% 30.12 in 10.0 mi North - - N/A   Overcast
1:53 PM 52.0 °F 37.0 °F 57% 29.92 in 10.0 mi North - - N/A   Overcast
2:53 PM 57.0 °F 37.9 °F 49% 29.91 in 10.0 mi West 5.8 mph - N/A   Mostly Cloudy
3:53 PM 57.0 °F 37.9 °F 49% 29.92 in 10.0 mi Variable 3.5 mph - N/A   Overcast
4:53 PM 57.0 °F 37.0 °F 47% 29.93 in 10.0 mi Variable 3.5 mph - N/A   Partly Cloudy
5:53 PM 55.9 °F 37.0 °F 49% 29.93 in 10.0 mi Variable 3.5 mph - N/A   Mostly Cloudy
6:53 PM 52.0 °F 36.0 °F 54% 29.97 in 10.0 mi Variable 3.5 mph - N/A   Mostly Cloudy
7:53 PM 52.0 °F 34.0 °F 50% 29.97 in 10.0 mi Variable 4.6 mph - N/A   Overcast
8:53 PM 52.0 °F 34.0 °F 50% 29.99 in 10.0 mi WSW 3.5 mph - N/A   Overcast
9:53 PM 52.0 °F 34.0 °F 50% 29.99 in 10.0 mi WSW 3.5 mph - N/A   Overcast
10:53 PM 51.1 °F 34.0 °F 52% 29.99 in 10.0 mi Variable 3.5 mph - N/A   Overcast
11:53 PM 51.1 °F 34.0 °F 52% 29.98 in 10.0 mi Calm Calm - N/A   Overcast